Home   Weather   Langenhagen   Past weeks

Flag for Germany Past Weather in Langenhagen, Lower Saxony, Germany — Yesterday and Last 2 Weeks

Now
57 °F

Clear.


Feels Like: 56 °F
Forecast: 57 / 63 °F
Wind: 6 mph from East

Location: Hannover

Current Time: Jul 24, 2017 at 5:03:11 am

Latest Report: Jul 24, 2017 at 4:29 am


Visibility: 10 mi

Pressure: 29.86 "Hg

Humidity: 88%

Dew Point: 54 °F

Location of LangenhagenLocation

Past Weather in Langenhagen — Graph

°F

Langenhagen Temperature Yesterday

Maximum temperature yesterday: 72 °F (at 2:50 pm)
Minimum temperature yesterday: 61 °F (at 9:50 am)
Average temperature yesterday: 66 °F

High & Low Weather Summary for the Past Weeks

 TemperatureHumidityPressure
High86 °F (Jul 19, 4:20 pm)100% (Jul 10, 9:50 am)30.21 "Hg (Jul 10, 9:50 am)
Low50 °F (Jul 18, 5:20 am)40% (Jul 14, 12:50 pm)29.68 "Hg (Jul 12, 2:06 pm)
Average64 °F78%29.97 "Hg
* Reported Jul 9 4:20 am — Jul 24 4:20 am, Langenhagen. Weather by CustomWeather, © 2017

Note: Actual official high and low records may vary slightly from our data, if they occured in-between our weather recording intervals... More about our weather records

Advertising

Langenhagen Weather History for the Previous 24 Hours

Scroll right to see more
 ConditionsComfort  
Time TempWeatherWind HumidityBarometerVisibility
4:20 am
Mon, Jul 24
59 °FPassing clouds.3 mph82%29.86 "HgN/A
3:50 am57 °FClear.1 mph88%29.86 "Hg10 mi
2:50 am61 °FClear.7 mph72%29.89 "Hg10 mi
2:20 am57 °FClear.1 mph88%29.89 "Hg10 mi
1:50 am59 °FClear.1 mph82%29.89 "Hg10 mi
1:20 am61 °FLight rain. Passing clouds.3 mph72%29.89 "HgN/A
12:50 am61 °FLight rain. Clear.6 mph72%29.92 "HgN/A
12:20 am61 °FClear.1 mph68%29.92 "Hg10 mi
11:50 pm
Sun, Jul 23
63 °FClear.6 mph64%29.92 "Hg10 mi
11:20 pm63 °FClear.5 mph64%29.92 "Hg10 mi
10:50 pm63 °FPassing clouds.8 mph64%29.92 "HgN/A
10:20 pm63 °FPassing clouds.3 mph68%29.92 "HgN/A
9:50 pm63 °FPassing clouds.3 mph68%29.92 "HgN/A
9:20 pm64 °FScattered clouds.5 mph64%29.92 "HgN/A
8:20 pm64 °FSunny.5 mph64%29.92 "Hg10 mi
7:50 pm66 °FSunny.6 mph60%29.92 "Hg10 mi
7:20 pm68 °FScattered clouds.10 mph49%29.92 "HgN/A
6:50 pm70 °FPassing clouds.12 mph50%29.89 "HgN/A
6:20 pm70 °FScattered clouds.9 mph50%29.89 "HgN/A
5:20 pm70 °FPassing clouds.13 mph53%29.92 "HgN/A
4:50 pm70 °FPassing clouds.16 mph50%29.92 "HgN/A
4:20 pm70 °FPassing clouds.12 mph50%29.89 "HgN/A
3:50 pm72 °FPassing clouds.13 mph50%29.92 "HgN/A
3:20 pm72 °FPassing clouds.13 mph50%29.92 "HgN/A
2:50 pm72 °FPassing clouds.13 mph53%29.92 "HgN/A
2:20 pm70 °FScattered clouds.12 mph57%29.92 "HgN/A
1:50 pm68 °FScattered clouds.13 mph56%29.92 "HgN/A
1:20 pm68 °FScattered clouds.14 mph64%29.92 "HgN/A
12:50 pm66 °FScattered clouds.17 mph64%29.92 "HgN/A
12:20 pm68 °FScattered clouds.13 mph64%29.92 "HgN/A
11:50 am66 °FScattered clouds.14 mph68%29.89 "HgN/A
11:20 am66 °FScattered clouds.15 mph73%29.89 "HgN/A
10:50 am66 °FScattered clouds.10 mph83%29.89 "HgN/A
10:20 am63 °FSprinkles. Partly sunny.9 mph94%29.89 "HgN/A
9:50 am61 °FLots of rain. Partly sunny.12 mph100%29.89 "Hg1 mi
9:20 am66 °FScattered showers. Broken clouds.10 mph83%29.86 "HgN/A
8:50 am64 °FScattered clouds.7 mph88%29.86 "HgN/A
7:50 am64 °FBroken clouds.7 mph88%29.86 "HgN/A
7:20 am64 °FBroken clouds.9 mph88%29.83 "HgN/A
6:50 am63 °FBroken clouds.8 mph94%29.83 "HgN/A
6:20 am63 °FBroken clouds.6 mph94%29.83 "HgN/A
5:50 am63 °FThundershowers. Broken clouds.7 mph94%29.83 "HgN/A
5:20 am63 °FThunderstorms. Partly cloudy.7 mph100%29.83 "HgN/A
Weather by CustomWeather, © 2017

See weather overviewHow to use our weather pages